FW1401 Weather Reports


Display with metric or nautical units.
time (UTC)temp
F
wind
direction
speed
MPH
gust
MPH
rain 1hr
in
rain 24hr
in
rain mn
in
humidity
%
barometer
mb
20260507103032 29 299 1.0 4.0 0.00 0.00 0.00 74 1016.0
20260507101528 30 310 0.0 5.0 0.00 0.00 0.00 73 1016.1
20260507100026 30 287 1.0 4.0 0.00 0.00 0.00 73 1016.1
20260507094525 30 295 0.0 3.0 0.00 0.00 0.00 73 1016.3
20260507093021 30 298 0.0 3.0 0.00 0.00 0.00 72 1016.3
20260507091518 31 294 0.0 3.0 0.00 0.00 0.00 71 1016.3
20260507090016 31 298 0.0 5.0 0.00 0.00 0.00 70 1016.4
20260507084517 31 296 2.0 5.0 0.00 0.00 0.00 70 1016.3
20260507083020 31 288 0.0 5.0 0.00 0.00 0.00 69 1016.3
20260507081518 31 272 1.0 4.0 0.00 0.00 0.00 68 1016.4
20260507080013 32 296 1.0 6.0 0.00 0.00 0.00 67 1016.4
20260507074510 33 291 2.0 6.0 0.00 0.00 0.00 67 1016.3
20260507073006 32 295 0.0 1.0 0.00 0.00 0.00 68 1016.4
20260507071503 32 300 0.0 3.0 0.00 0.00 0.00 67 1016.4
20260507070000 33 292 1.0 4.0 0.00 0.00 0.00 66 1016.5
20260507064613 34 283 1.0 3.0 0.00 0.00 0.00 65 1016.5
20260507063057 35 296 2.0 6.0 0.00 0.00 0.00 64 1016.7
20260507061555 35 295 2.0 6.0 0.00 0.00 0.00 64 1016.7
20260507060058 35 281 1.0 7.0 0.00 0.00 0.00 63 1016.8
20260507054600 35 259 2.0 8.0 0.00 0.00 0.00 62 1016.9
20260507053047 35 270 2.0 6.0 0.00 0.00 0.00 62 1016.9
20260507051543 37 254 3.0 7.0 0.00 0.00 0.00 60 1017.0
20260507050042 37 290 1.0 5.0 0.00 0.00 0.00 59 1017.1
20260507044539 37 312 1.0 4.0 0.00 0.00 0.00 60 1017.3
20260507043038 37 294 0.0 3.0 0.00 0.00 0.00 61 1017.3
20260507041549 37 300 0.0 2.0 0.00 0.00 0.00 60 1017.5
20260507040034 37 296 0.0 3.0 0.00 0.00 0.00 59 1017.7
20260507034536 38 289 0.0 2.0 0.00 0.00 0.00 59 1017.8
20260507033035 38 292 0.0 4.0 0.00 0.00 0.00 58 1017.9
20260507031531 38 293 0.0 2.0 0.00 0.00 0.00 58 1018.1
20260507030030 38 293 0.0 1.0 0.00 0.00 0.00 57 1018.1
20260507024529 38 293 0.0 2.0 0.00 0.00 0.00 58 1018.2
20260507023030 39 299 0.0 1.0 0.00 0.00 0.00 57 1018.2
20260507021528 40 298 0.0 1.0 0.00 0.00 0.00 55 1018.3
20260507020029 41 303 0.0 1.0 0.00 0.00 0.00 53 1018.2
20260507014545 42 304 0.0 1.0 0.00 0.00 0.00 52 1018.3
20260507013040 43 304 0.0 1.0 0.00 0.00 0.00 50 1018.2
20260507011534 44 304 0.0 2.0 0.00 0.00 0.00 48 1018.3
20260507010024 44 308 0.0 2.0 0.00 0.00 0.00 47 1018.4
20260507004523 45 321 0.0 3.0 0.00 0.00 0.00 47 1018.5
20260507003022 45 301 1.0 4.0 0.00 0.00 0.00 46 1018.5
20260507001521 45 335 1.0 7.0 0.00 0.00 0.00 46 1018.7
20260507000027 45 334 1.0 5.0 0.00 0.00 0.00 46 1018.8
20260506234519 45 336 1.0 8.0 0.00 0.00 0.00 47 1018.9
20260506233022 45 286 1.0 5.0 0.00 0.00 0.00 47 1019.0
20260506231516 45 287 2.0 7.0 0.00 0.00 0.00 48 1019.2
20260506230015 44 313 3.0 7.0 0.00 0.00 0.00 48 1019.4
20260506224513 45 323 2.0 9.0 0.00 0.00 0.00 49 1019.4
20260506223012 45 315 0.0 7.0 0.00 0.00 0.00 49 1019.5
20260506221510 45 318 1.0 9.0 0.00 0.00 0.00 49 1019.6
20260506220007 44 318 3.0 9.0 0.00 0.00 0.00 50 1019.7
20260506214505 44 313 2.0 8.0 0.00 0.00 0.00 51 1019.8
20260506213003 43 313 3.0 8.0 0.00 0.00 0.00 51 1020.0
20260506211501 43 324 2.0 9.0 0.00 0.00 0.00 51 1020.1
20260506210126 43 323 2.0 5.0 0.00 0.00 0.00 51 1020.1
20260506204559 43 311 2.0 10.0 0.00 0.00 0.00 52 1020.2
20260506203103 43 318 2.0 10.0 0.00 0.00 0.00 53 1020.4
20260506201559 43 338 2.0 9.0 0.00 0.00 0.00 53 1020.5
20260506200140 43 317 4.0 9.0 0.00 0.00 0.00 53 1020.5
20260506194607 43 346 2.0 6.0 0.00 0.00 0.00 53 1020.6
20260506193057 42 309 0.0 7.0 0.00 0.00 0.00 53 1020.7
20260506191556 42 308 0.0 4.0 0.00 0.00 0.00 53 1020.9
20260506190056 42 334 2.0 7.0 0.00 0.00 0.00 54 1020.8
20260506184557 42 310 1.0 8.0 0.00 0.00 0.00 56 1021.0
20260506183055 42 314 2.0 10.0 0.00 0.00 0.00 55 1021.1
20260506181554 42 334 3.0 9.0 0.00 0.00 0.00 55 1021.2
20260506180103 42 332 1.0 7.0 0.00 0.00 0.00 54 1021.2
20260506174553 42 323 6.0 13.0 0.00 0.00 0.00 53 1021.3
20260506173109 42 332 1.0 7.0 0.00 0.00 0.00 55 1021.3
20260506171559 42 323 0.0 7.0 0.00 0.00 0.00 54 1021.5
20260506170051 42 344 3.0 9.0 0.00 0.00 0.00 53 1021.5
20260506164551 42 312 1.0 9.0 0.00 0.00 0.00 54 1021.6
20260506163051 41 346 5.0 14.0 0.00 0.00 0.00 53 1021.7
20260506161555 42 338 1.0 14.0 0.00 0.00 0.00 53 1021.8
20260506160053 43 310 2.0 10.0 0.00 0.00 0.00 53 1021.7
20260506154544 40 322 1.0 8.0 0.00 0.00 0.00 57 1021.9
20260506153045 40 322 3.0 11.0 0.00 0.00 0.00 57 1021.9
20260506151543 40 316 6.0 15.0 0.00 0.00 0.00 56 1022.0
20260506150040 40 327 3.0 9.0 0.00 0.00 0.00 58 1022.0
20260506144538 39 344 6.0 14.0 0.00 0.00 0.00 57 1022.1
20260506143037 39 317 2.0 6.0 0.00 0.00 0.00 58 1022.1
20260506141534 38 334 5.0 13.0 0.00 0.00 0.00 59 1022.1
20260506140035 38 310 2.0 11.0 0.00 0.00 0.00 61 1022.2
20260506134604 38 334 6.0 11.0 0.00 0.00 0.00 61 1022.2
20260506133028 37 340 3.0 8.0 0.00 0.00 0.00 64 1022.2
20260506131528 36 323 2.0 8.0 0.00 0.00 0.00 66 1022.1
20260506130025 36 317 1.0 5.0 0.00 0.00 0.00 68 1022.0
20260506124523 35 315 0.0 2.0 0.00 0.00 0.00 70 1022.1
20260506123022 35 330 0.0 3.0 0.00 0.00 0.00 70 1022.0
20260506121521 34 316 0.0 1.0 0.00 0.00 0.00 70 1021.9
20260506120019 34 331 0.0 2.0 0.00 0.00 0.00 70 1021.7
20260506114526 34 336 0.0 3.0 0.00 0.00 0.00 70 1021.7
20260506113018 34 321 0.0 1.0 0.00 0.00 0.00 70 1021.4
20260506111515 34 331 0.0 1.0 0.00 0.00 0.00 69 1021.2
20260506110017 34 330 0.0 2.0 0.00 0.00 0.00 68 1021.2
20260506104513 34 329 0.0 3.0 0.00 0.00 0.00 68 1021.1